Regional Weather Roundup
Issued by NWS

Home | Current Version | Previous Version | Text Only | Print | Product List | Glossary On
Versions: 1 2 3 4 5 6 7 8 9 10 11 12 13 14 15 16 17 18 19 20 21 22 23 24 25 26 27 28 29 30 31 32 33 34 35 36 37 38 39 40 41 42 43 44 45 46 47 48 49 50
000
ASUS43 KMPX 260710
RWRMN
WEATHER ROUNDUP FOR MINNESOTA
NATIONAL WEATHER SERVICE TWIN CITIES/CHANHASSEN MN
200 AM CDT MON JUN 26 2017


NOTE: "FAIR" INDICATES FEW OR NO CLOUDS BELOW 12,000 FEET WITH NO
SIGNIFICANT WEATHER AND/OR OBSTRUCTIONS TO VISIBILITY. N/A MEANS
CURRENT SKY AND/OR WEATHER CONDITIONS ARE NOT AVAILABLE.

MNZ060>063-068>070-260800-
   Twin Cities Metro

CITY           SKY/WX    TMP DP  RH WIND       PRES   REMARKS
TWIN CITIES    CLEAR     54  44  69 NW5       30.13F
ST PAUL        PTCLDY    52  45  77 N5        30.14S
CRYSTAL        CLEAR     51  42  71 W5        30.13S
BLAINE         CLEAR     52  45  76 W3        30.14R
LAKEVILLE      CLEAR     50  46  87 W3        30.14S
EDEN PRAIRIE   CLEAR     56  45  66 NW5       30.13S
SOUTH ST PAUL  PTCLDY    53  43  67 CALM      30.13S
LAKE ELMO      MOCLDY    52  45  76 CALM      30.14S
$$
MNZ001>005-007-008-013>017-022>024-027-028-260800-
   Northwest Minnesota

CITY           SKY/WX    TMP DP  RH WIND       PRES   REMARKS
BEMIDJI        CLEAR     40  39  96 W6        30.17S
HALLOCK        CLEAR     45  43  93 W5        30.19F
ROSEAU         CLEAR     48  45  87 W7        30.17S
WARROAD        CLEAR     46  43  87 W5        30.17S
THIEF RVR FALL CLEAR     45  43  93 W5        30.20S
CROOKSTON      CLEAR     43  39  87 NW3       30.21S
FOSSTON        PTCLDY    43  41  93 NW3       30.19S
DETROIT LAKES  CLEAR     46  43  87 NW5       30.20S
MOORHEAD       CLEAR     45  39  81 CALM      30.21S
PARK RAPIDS    CLEAR     42  37  82 NW5       30.17S
MAHNOMEN       FAIR      45  42  90 CALM      30.19S
$$
MNZ006-009>011-018-025>026-260800-
   North Central Minnesota

CITY           SKY/WX    TMP DP  RH WIND       PRES   REMARKS
BAUDETTE       CLEAR     46  44  93 W7        30.14F
FLAG ISLAND    CLEAR     52  46  82 NW12      30.14S
INTL FALLS     CLEAR     41  39  93 CALM      30.12S
WASKISH        CLEAR     50  45  81 NW7       30.15F
BIG FORK         N/A     39  39 100 CALM      30.14S FOG
LONGVILLE      CLEAR     45  43  93 CALM      30.15S
GRAND RAPIDS   CLEAR     44  44 100 CALM      30.16S
CRANE LAKE     PTCLDY    37  37 100 CALM      30.12F
ORR            PTCLDY    46  43  87 CALM      30.10S
COOK           PTCLDY    43  43 100 CALM      30.12S
WALKER         FAIR      42  41  96 NW6       30.17R
$$
MNZ012-019>021-037-260800-
   Northeast Minnesota

CITY           SKY/WX    TMP DP  RH WIND       PRES   REMARKS
DULUTH         CLEAR     42  42 100 NW6       30.10S
ELY            DRIZZLE   46  46 100 CALM      30.09F
HIBBING        PTCLDY    38  38 100 CALM      30.12S
EVELETH        MOCLDY    47  43  87 W7        30.12S
DULUTH HARBOR  CLEAR     50  46  87 NW3       30.12S
TWO HARBORS    PTCLDY    48  45  87 NW3       30.08S
SILVER BAY     DRIZZLE   48  46  93 CALM      30.07S
GRAND MARAIS     N/A     49  46  90 N14G25    30.03S
G MARAIS ARPRT RAIN      43  39  87 NW9G18    30.05S
$$
MNZ029>031-032-039>041-046>048-054>057-064-260800-
   West Central Minnesota

CITY           SKY/WX    TMP DP  RH WIND       PRES   REMARKS
FERGUS FALLS   CLEAR     48  43  81 CALM      30.18S
WHEATON        CLEAR     50  45  81 CALM      30.23R
MORRIS         CLEAR     50  48  93 NW6       30.19S
ALEXANDRIA     CLEAR     49  44  83 CALM      30.19S
ELBOW LAKE     FAIR      51  45  78 N5        30.20R
WADENA         CLEAR     45  39  81 CALM      30.18S
GLENWOOD       CLEAR     50  45  81 N3        30.19S
APPLETON       CLEAR     50  45  81 W3        30.19S
BENSON         CLEAR     46  45  93 N3        30.20S
ORTONVILLE     MOCLDY    54  46  76 NW6       30.20S
MADISON        PTCLDY    52  50  93 W5        30.20S
WILLMAR        FAIR      52  46  82 NW5       30.19S
$$
MNZ033>034-036-042>043-049>051-058-059-260800-
   Central Minnesota

CITY           SKY/WX    TMP DP  RH WIND       PRES   REMARKS
ST CLOUD       CLEAR     48  43  82 NW6       30.16R
SAUK CENTRE    FAIR      47  42  85 CALM      30.18S
PAYNESVILLE    CLEAR     46  47 100 CALM      30.18S
AITKIN         CLEAR     39  37  93 CALM      30.14R FOG
PINE RIVER     CLEAR     48  45  87 CALM      30.19S
BRAINERD       CLEAR     49  43  80 NW8       30.16S
STAPLES        PTCLDY    45  41  87 NW5       30.17S
LONG PRAIRIE   FAIR      46  41  81 W3        30.18S
LITTLE FALLS   CLEAR     43  39  87 CALM      30.16F
LITCHFIELD     CLEAR     52  48  87 NW5       30.18R
BUFFALO        PTCLDY    52  44  75 CALM      30.16S
MAPLE LAKE     CLEAR     50  47  89 W3        30.17S
HUTCHINSON     PTCLDY    53  49  87 NW5       30.18R
$$
MNZ037-044-045-052-053-260800-
   East Central Minnesota

CITY           SKY/WX    TMP DP  RH WIND       PRES   REMARKS
PRINCETON      CLEAR     46  43  87 W3        30.15S
MORA           CLEAR     45  43  93 CALM      30.15S
CAMBRIDGE      CLEAR     48  39  71 CALM      30.13R
RUSH CITY      CLEAR     43  41  93 CALM      30.13S
MOOSE LAKE     CLEAR     41  37  87 CALM      30.12R
HINCKLEY       FAIR      43  43 100 CALM      30.13S
CLOQUET        CLEAR     43  39  87 NW5       30.11F
MCGREGOR       CLEAR     46  45  93 NW5       30.14S
$$
MNZ071>073-080-081-089-090-097-098-260800-
   Southwest Minnesota

CITY           SKY/WX    TMP DP  RH WIND       PRES   REMARKS
MONTEVIDEO     PTCLDY    52  46  82 NW6       30.20R
GRANITE FALLS  PTCLDY    49  46  90 W6        30.21R
CANBY          CLEAR     49  47  91 CALM      30.21S
MARSHALL       CLEAR     49  46  90 W6        30.20S
REDWOOD FALLS  CLEAR     51  45  79 W7        30.18S
OLIVIA         PTCLDY    50  46  87 NW5       30.17F
PIPESTONE      MOCLDY    54  48  82 CALM      30.21S
WINDOM         CLOUDY    55  48  76 W6        30.19F
WORTHINGTON    CLOUDY    53  51  93 W7        30.22S
JACKSON        CLOUDY    54  50  87 CALM      30.20F
TRACY          CLOUDY    54  49  84 W5        30.20F
SLAYTON        MOCLDY    55  50  85 W8        30.21F
$$
MNZ065>067-074>077-082>085-091>093-260800-
   South Central Minnesota

CITY           SKY/WX    TMP DP  RH WIND       PRES   REMARKS
MANKATO        MOCLDY    54  48  80 W7        30.16S
NEW ULM        CLEAR     50  45  81 W7        30.17S
ST JAMES       CLOUDY    54  48  82 NW3       30.19S
FAIRMONT       CLOUDY    57  50  77 W8        30.19R
GLENCOE        MOCLDY    54  50  89 W7        30.16R
FARIBAULT      PTCLDY    54  46  76 W7        30.14S
OWATONNA       PTCLDY    54  46  76 W7        30.15R
WASECA         CLOUDY    52  46  82 W5        30.17S
ALBERT LEA     CLEAR     54  45  71 W3        30.16R
$$
MNZ078>079-086>088-094>096-260800-
   Southeast Minnesota

CITY           SKY/WX    TMP DP  RH WIND       PRES   REMARKS
ROCHESTER      PTCLDY    50  45  83 W9        30.13F
RED WING       CLEAR     46  43  87 CALM      30.11S
STANTON        CLEAR     52  46  80 NW5       30.13S
DODGE CENTER   CLEAR     54  45  71 W7        30.13F
WINONA         CLEAR     48  45  87 CALM      30.12S
AUSTIN         CLOUDY    55  45  67 W7        30.14S
PRESTON        CLEAR     50  43  75 W8        30.13F
$$
ABBREVIATIONS USED IN REMARKS
   TC - TEMPERATURES IN CELSIUS
  WCI - WIND CHILL INDEX
   HX - HEAT INDEX
  VSB - VISIBILITY
$$




USA.gov is the U.S. government's official web portal to all federal, state and local government web resources and services.